User: anonymous   Login
Location: Oshawa
(43.9000°N, 78.8670°W)
Time: 20:37:15
(UTC-05:00)
Language:

CZ-4C R/B - Orbit

View from above orbital plane
View from above orbital plane
View from above satellite
View from above satellite

Ground track
Ground track

The orbit data is extracted from the following two-line orbital elements,

1 32290U 07055B   14329.79747971  .00009250  00000-0  34266-3 0   174
2 32290 097.5616 045.7697 0084082 203.4092 271.8175 15.24542429388875
Epoch (UTC): 25 November 2014 19:08:22
Eccentricity: 0.0084082
inclination: 97.5616°
perigee height: 434 km
apogee height: 550 km
right ascension of ascending node: 45.7697°
argument of perigee: 203.4092°
revolutions per day: 15.24542429
mean anomaly at epoch: 271.8175°
orbit number at epoch: 38887

The dashed part of the orbit path shows where the satellite is in the earth's shadow,  

DLR